Simultaneous Nadir Overpasses (SNOs) Predictions

Prediction of SNOs between AQUA and NPP Satellite Orbit:

Table of predicted SNOs for the next 14.0 days since TLE Epoch: 10/5/2012
Index Date (AQUA) Time (AQUA) Lat,Lon (AQUA) SZA (AQUA ) Date (NPP) Time (NPP) Lat,Lon (NPP) SZA (NPP ) Distance(km) Time Diff (sec)
1 10/06/2012 23:26:56 77.02, 70.54 100.86 10/06/2012 23:26:33 77.02, 70.60 100.86 1.74 23
2 10/07/2012 00:16:12 -77.54,-119.77 79.75 10/07/2012 00:17:07 -77.53,-119.86 79.77 2.43 55
3 10/09/2012 14:57:22 -66.42, -1.36 67.60 10/09/2012 14:56:09 -66.60, -2.63 67.23 59.57 73
4 10/09/2012 15:43:27 77.03,-173.54 101.80 10/09/2012 15:43:26 77.03,-173.60 101.81 1.51 1
5 10/09/2012 16:31:13 -80.91, 19.75 83.62 10/09/2012 16:32:27 -80.64, 20.46 83.79 33.16 74
6 10/12/2012 07:10:43 -76.52, 132.85 76.69 10/12/2012 07:09:47 -76.52, 132.84 76.63 0.34 56
7 10/12/2012 07:59:52 77.30, -56.66 102.45 10/12/2012 08:00:13 77.29, -56.69 102.44 0.61 21
8 10/14/2012 23:27:09 -76.71,-110.61 75.96 10/14/2012 23:26:36 -76.70,-110.67 75.92 1.65 33
9 10/15/2012 00:16:18 77.48, 59.94 103.18 10/15/2012 00:17:02 77.47, 59.88 103.16 1.61 44
10 10/17/2012 15:43:29 -77.10, 6.69 75.47 10/17/2012 15:43:19 -77.11, 6.74 75.47 1.15 10




NCC Satellite Simultaneous Nadir Overpasses (SNOs) Prediction Service
